Location: Annaparochie
(53.2764°N, 5.6570°E)
Time: 00:22:18
(UTC+00:00)

Daily predictions for brighter satellites

Satellite Brightness Start Highest point End
(mag) Time Altitude Azimuth Time Altitude Azimuth Time Altitude Azimuth
Cosmos 2227 Rocket 4.5 03:47:49 13° N 03:47:49 13° N 03:49:53 10° NNE
Cosmos 2263 Rocket 4.2 03:51:15 16° N 03:51:15 16° N 03:53:02 10° NNE
COSMOS 2406 4.4 03:52:21 32° SSE 03:52:21 32° SSE 03:55:16 10° SSE
Cosmos 2082 Rocket 2.4 03:52:50 64° ESE 03:52:50 64° ESE 03:57:40 10° SE
COSMOS 2455 3.9 03:57:05 33° S 03:57:05 33° S 04:00:22 10° SSE
METEOR-M 4.1 03:59:41 10° NNE 04:04:50 78° ENE 04:04:50 78° ENE
ARIANE 5 R/B 4.5 04:00:28 10° N 04:01:49 18° N 04:01:49 18° N
Cosmos 1844 Rocket 4.0 04:07:43 27° N 04:07:43 27° N 04:10:45 10° NNE
Cosmos 1513 Rocket 4.4 04:02:48 30° N 04:06:11 89° W 04:12:36 10° S
Cosmos 2034 Rocket 4.2 04:05:59 10° N 04:12:10 70° ENE 04:18:23 10° SSE
MOS 1-B Rocket 4.1 04:05:39 10° SSE 04:12:11 76° ENE 04:16:31 19° NNW
Cosmos 676 Rocket 4.1 04:15:14 64° N 04:15:14 64° N 04:19:45 10° NNE
Cosmos 2278 Rocket 2.4 04:13:39 42° S 04:15:33 69° ESE 04:21:13 10° NE
USA 215 3.4 04:11:25 10° SE 04:17:43 49° SW 04:17:51 49° SW
BREEZE M DEB (TANK) 4.0 04:21:18 42° S 04:21:29 43° S 04:24:24 10° E
Cosmos 1072 Rocket 4.3 04:18:58 36° NNW 04:21:40 73° W 04:27:45 10° S
CZ-2C R/B 3.0 04:16:36 10° SSE 04:22:05 67° ENE 04:26:50 14° N
Cosmos 540 Rocket 3.7 04:25:25 54° SSW 04:25:25 54° SSW 04:29:30 10° SSE
SKYMED 2 3.8 04:21:04 10° SSE 04:25:22 66° ENE 04:26:01 57° NNE
Cosmos 1933 4.1 04:27:43 37° NNE 04:28:50 49° ENE 04:32:44 10° SSE
NOSS 3-3 (A) 4.5 04:27:19 39° NW 04:30:31 84° NE 04:38:51 10° SE
Cosmos 1833 Rocket 4.4 04:34:00 18° SSW 04:34:00 18° SSW 04:35:37 10° S
NOSS 3-3 (C) 4.5 04:27:24 39° NW 04:30:37 83° NE 04:38:56 10° SE
Cosmos 2346 Rocket 4.5 04:25:03 10° S 04:31:20 84° E 04:37:38 10° NNE
Cosmos 1741 Rocket 4.3 04:30:40 10° SSW 04:35:49 65° ESE 04:41:01 10° NNE
Meteor 1-31 Rocket 4.1 04:33:02 10° NNE 04:36:41 39° E 04:40:21 10° SSE
Cosmos 2151 4.0 04:39:39 10° SSE 04:43:46 47° E 04:47:55 10° NNE
Cosmos 1812 4.4 04:44:33 10° N 04:48:04 32° ENE 04:51:34 10° SE
Cosmos 841 Rocket 3.5 04:48:37 54° W 04:48:58 55° WSW 04:53:59 10° S
CZ-4C R/B 3.1 04:48:40 10° SSE 04:51:33 62° ESE 04:51:33 62° ESE
SJ-12 3.9 04:52:09 10° NNE 04:56:19 83° ESE 05:00:27 10° SSW
Envisat 3.0 04:52:02 10° NNE 04:57:10 80° ESE 05:02:15 10° SSW
H-2A R/B 3.3 04:54:21 10° SE 04:58:18 41° ENE 05:02:22 10° N
Genesis I 3.8 04:57:08 39° NNW 04:58:19 54° NE 05:02:20 10° ESE
Cosmos 2297 Rocket 4.4 04:56:14 10° NNW 04:59:17 15° NNE 05:02:31 10° NE
Cosmos 1570 Rocket 3.9 05:01:27 29° NNW 05:04:11 73° WSW 05:09:24 10° SSE
YAOGAN 6 2.5 05:01:47 10° N 05:05:29 72° WNW 05:09:08 10° SSW
Lacrosse 4 Rocket 3.8 05:07:57 12° N 05:08:27 12° N 05:10:09 10° NNE
Cosmos 1076 Rocket 3.4 05:04:26 10° SSW 05:08:47 70° WNW 05:13:11 10° N
CBERS 1 LM4 rocket 4.3 05:04:19 10° NNE 05:09:07 84° ESE 05:13:59 10° SSW
DMSP B5D2-2 4.2 05:06:02 10° SSE 05:11:15 74° ENE 05:16:28 10° NNW
Cosmos 1867 3.5 05:10:51 31° NW 05:13:28 71° SW 05:18:54 10° SSE
COSMO-SKYMED 1 2.8 05:09:22 10° S 05:13:32 46° W 05:14:38 37° WNW
Cosmos 1241 Rocket 4.4 05:10:06 26° NW 05:13:49 78° SW 05:20:01 10° SSE
Aureole 1 Rocket 4.3 05:12:15 10° S 05:14:56 28° ESE 05:17:34 10° NE
Cosmos 1464 Rocket 4.5 05:10:07 10° NNW 05:15:48 36° W 05:21:25 10° SSW
APEX 2.8 05:16:51 48° SSW 05:16:51 48° SSW 05:19:11 10° SSE
Cosmos 921 Rocket 3.3 05:13:08 17° NNW 05:16:28 68° ENE 05:20:51 10° SSE
H-2A R/B 2.6 05:14:50 10° N 05:18:27 57° WNW 05:22:05 10° SSW
NOSS 3-2 (A) 4.0 05:14:48 10° SSW 05:20:21 59° SE 05:26:50 10° NE
Cosmos 1151 Rocket 3.3 05:20:19 10° N 05:24:42 71° ENE 05:29:05 10° SSE
CENTAUR R/B 3.3 05:21:18 10° SSW 05:27:07 55° SE 05:34:08 10° NE
Cosmos 2208 Rocket 4.1 05:24:24 18° NW 05:28:24 60° WSW 05:33:43 10° S
Cosmos 968 Rocket 4.5 05:23:31 10° S 05:28:29 49° ESE 05:33:25 10° NE
CZ-4B R/B 3.7 05:25:04 10° NNE 05:28:38 47° E 05:32:06 10° S
Meteor 2-6 Rocket 4.4 05:23:54 10° N 05:29:26 71° ENE 05:34:49 10° SSE
Gbstr 26 Del rocket 3.9 05:28:19 25° WSW 05:29:31 30° SSW 05:33:13 10° SSE
Cosmos 1814 Rocket 4.4 05:28:34 24° NW 05:31:05 41° WSW 05:35:51 10° S
Meteor 2-3 Rocket 3.6 05:27:18 10° SSW 05:32:57 78° WNW 05:38:43 10° NNE
Cosmos 2227 Rocket 4.3 05:30:15 10° NNW 05:33:47 16° NNE 05:37:20 10° ENE
Landsat 5 4.2 05:29:54 10° SSW 05:34:06 37° W 05:36:50 19° NW
Cosmos 2263 Rocket 4.2 05:32:57 10° NNW 05:35:16 13° N 05:37:38 10° NNE
Cosmos 2082 Rocket 3.2 05:34:44 23° W 05:35:34 23° WSW 05:39:53 10° SSW
ALOS 4.3 05:33:30 10° NNW 05:34:05 12° NNW 05:34:05 12° NNW
Meteor 1-26 Rocket 4.4 05:30:55 10° NNW 05:36:49 56° W 05:42:33 10° S
Meteor PRIRODA 3.8 05:35:51 10° NNE 05:39:29 71° ESE 05:43:05 10° S
Cosmos 1850 Rocket 4.3 05:37:03 10° SW 05:42:09 44° NW 05:47:18 10° NNE
CZ-4B R/B 2.2 05:39:29 10° SSE 05:42:46 52° ENE 05:46:02 10° N
Cosmos 2297 3.9 05:37:46 10° SSW 05:43:31 79° ESE 05:49:16 10° NNE
Kosmos-917 4.0 05:43:21 13° SW 05:45:51 80° NW 05:52:19 10° NE
Cosmos 836 Rocket 4.5 05:43:33 10° NNW 05:48:53 87° WSW 05:54:08 10° SSE
Cosmos 1844 Rocket 4.4 05:49:23 13° NW 05:51:11 15° NNW 05:54:26 10° NNE
Cosmos 1515 Rocket 4.3 05:47:01 10° N 05:51:22 55° ENE 05:55:40 10° SSE
Cosmos 1782 3.4 05:48:34 14° NNW 05:51:33 35° W 05:55:10 10° SSW
USA 238 DEB 4.2 05:45:42 10° SSW 05:52:07 64° SE 05:58:58 10° NE
USA 238 4.2 05:45:48 10° SSW 05:52:14 63° SE 05:59:04 10° NE
NOAA 11 4.1 05:48:08 10° NNE 05:53:37 78° WNW 05:59:05 10° SSW
Cosmos 2142 Rocket 4.5 05:48:55 10° NNW 05:55:11 70° W 06:01:29 10° S
CZ-2C R/B 2.9 05:50:36 10° NNE 05:55:23 89° E 06:00:16 10° SSW
Cosmos 1862 3.5 05:54:28 10° S 05:58:24 75° E 06:02:22 10° NNE
Cosmos 2278 Rocket 2.9 05:55:34 12° W 06:00:07 32° NW 06:05:12 10° NNE
Meteor 2-15 4.5 05:56:22 10° NNW 06:02:31 89° E 06:08:34 10° S
CZ-2C R/B 3.7 05:58:22 10° SW 06:02:50 25° W 06:07:15 10° NW
Cosmos 1943 Rocket 2.2 05:57:54 10° SW 06:03:35 80° WNW 06:09:18 10° NNE
Okean 3 Rocket 3.7 06:02:12 10° S 06:06:45 86° E 06:11:20 10° NNE
FengYun 1-2 T 4.4 06:03:21 10° NNE 06:08:54 80° ESE 06:14:23 10° SSW
ADEOS 3.7 06:04:08 10° N 06:09:14 53° WNW 06:14:18 10° SW
Cosmos 2344 3.6 06:02:31 10° WSW 06:09:53 70° NW 06:18:16 10° NE
Cosmos 1833 4.2 06:04:28 10° NNW 06:10:11 89° WSW 06:15:54 10° SSE
Meteor 1-31 Rocket 3.8 06:07:43 10° N 06:10:55 25° WNW 06:14:07 10° WSW
Iridium 2 4.2 06:14:30 10° SW 06:18:02 36° WNW 06:21:35 10° N
SL-8 R/B 4.5 06:13:31 10° WSW 06:18:07 48° S 06:22:42 10° ESE
SJ 16-02 4.3 06:15:29 10° SE 06:18:36 19° E 06:21:43 10° NE
Cosmos 2279 Rocket 4.2 06:12:40 10° NNW 06:18:39 51° W 06:24:35 10° SSW
Cosmos 2151 4.1 06:17:47 10° WSW 06:21:17 24° WNW 06:24:49 10° N
AQUARIUS 4.3 06:17:32 10° NNE 06:22:04 84° ESE 06:26:35 10° SSW
DNEPR-1 R/B 3.9 06:17:44 11° NW 06:22:07 67° SW 06:27:27 10° SSE
Cosmos 1812 3.7 06:20:27 10° NNW 06:23:44 27° W 06:26:59 10° SSW
Cosmos 1939 Rocket 2.9 06:26:55 10° N 06:30:52 55° WNW 06:34:43 10° SSW
Nadezhda 4 Rocket 4.1 06:28:06 10° S 06:34:15 84° E 06:40:30 10° NNE
Cosmos 773 Rocket 4.0 06:29:04 10° NNW 06:34:22 88° W 06:39:36 10° SSE
H-2A R/B 3.0 06:30:47 10° SSW 06:34:25 28° W 06:38:08 10° NW
SMAP 3.0 06:29:47 10° N 06:34:27 69° WNW 06:39:04 10° SSW
Envisat 4.2 06:31:53 10° N 06:35:39 21° NW 06:39:24 10° WSW
Genesis I 4.4 06:32:07 10° WNW 06:35:41 29° WSW 06:39:12 10° S
Cosmos 2228 Rocket 3.7 06:31:20 10° N 06:35:45 59° ENE 06:40:11 10° SSE
Meteor 1-27 Rocket 3.7 06:30:38 10° NNW 06:36:13 78° W 06:41:52 10° S
CZ-2D R/B 3.2 06:33:34 10° NNE 06:37:24 90° ESE 06:41:12 10° SSW
Cosmos 1766 Rocket 3.9 06:36:06 10° SW 06:40:16 43° WNW 06:44:25 10° N
Cosmos 2098 Rocket 3.6 06:37:13 10° SW 06:40:29 31° WNW 06:44:27 10° N
PSLV R/B 3.7 06:37:12 10° NNE 06:41:01 79° WNW 06:44:55 10° SSW
Cosmos 2297 Rocket 3.5 06:39:58 10° NNW 06:45:08 34° NE 06:50:17 10° ESE
